Location: Bennemühlen
(52.5740°N, 9.7135°E)
Time: 07:34:44
(UTC+00:00)

Vanguard 2 Rocket - Pass Details

Date: 23 February 2026
Orbit: 553 x 3286 km, 32.9° (Epoch: 7 March)

Event Time Altitude Azimuth Distance (km) Brightness Sun altitude
Rises 08:07:11 0° 193° (SSW) 6,887 11.7 13.6°
Reaches altitude 10° 08:13:55 10° 177° (S) 6,120 11.8 14.4°
Maximum altitude 08:25:17 19° 142° (SE) 5,472 13.2 15.7°
Drops below altitude 10° 08:36:11 10° 106° (ESE) 5,899 12.3 17.0°
Sets 08:42:21 0° 91° (E) 6,570 12.0 17.6°
